Location: Newark
(58.8333°N, 23.5833°E)
Time: 20:11:11
(UTC+00:00)

Tiros 1 despin weight - All Passes

Search period start: 17 November 2019 00:00
Search period end: 27 November 2019 00:00
Orbit: 594 x 642 km, 48.2° (Epoch: 17 November)

Date Brightness Start Highest point End Pass type
(mag) Time Alt. Az. Time Alt. Az. Time Alt. Az.
17 Nov - 13:48:47 10° SSW 13:51:44 18° SSE 13:54:45 10° ESE daylight
17 Nov - 15:28:56 10° SW 15:32:17 21° S 15:35:40 10° SE visible
17 Nov - 17:10:25 10° SW 17:12:45 14° SSW 17:15:06 10° S visible
18 Nov - 12:25:53 10° S 12:27:32 12° SSE 12:29:12 10° SE daylight
18 Nov - 14:04:39 10° SW 14:07:55 20° S 14:11:12 10° SE daylight
18 Nov - 15:45:18 10° WSW 15:48:28 19° SSW 15:51:40 10° SSE visible
18 Nov - 17:28:40 10° SSW 17:28:48 10° SSW 17:28:55 10° SSW visible
19 Nov - 12:40:58 10° SSW 12:43:37 16° SSE 12:46:17 10° ESE daylight
19 Nov - 14:20:46 10° SW 14:24:07 21° S 14:27:29 10° SE daylight
19 Nov - 16:01:53 10° WSW 16:04:38 16° SSW 16:07:23 10° SSE visible
20 Nov - 12:56:40 10° SSW 12:59:45 19° SSE 13:02:53 10° ESE daylight
20 Nov - 14:37:02 10° SW 14:40:18 20° S 14:43:36 10° SE visible
20 Nov - 16:18:55 10° SW 16:20:43 12° SSW 16:22:32 10° S visible
21 Nov - 11:33:20 10° S 11:35:30 13° SSE 11:37:41 10° SE daylight
21 Nov - 13:12:39 10° SW 13:15:57 21° S 13:19:16 10° SE daylight
21 Nov - 14:53:30 10° WSW 14:56:29 18° SSW 14:59:30 10° SSE visible
22 Nov - 11:48:45 10° SSW 11:51:38 17° SSE 11:54:30 10° ESE daylight
22 Nov - 13:28:49 10° SW 13:32:08 21° S 13:35:29 10° SE daylight
22 Nov - 15:10:13 10° SW 15:12:37 14° SSW 15:15:01 10° S visible
23 Nov - 10:26:07 10° SSE 10:27:25 11° SSE 10:28:44 10° SE daylight
23 Nov - 12:04:35 10° SW 12:07:47 20° S 12:11:00 10° SE daylight
23 Nov - 13:45:10 10° WSW 13:48:20 19° S 13:51:30 10° SE daylight
23 Nov - 15:27:51 10° SW 15:28:40 10° SSW 15:29:29 10° SSW visible
24 Nov - 10:40:59 10° SSW 10:43:30 15° SSE 10:46:01 10° SE daylight
24 Nov - 12:20:40 10° SW 12:23:58 21° S 12:27:18 10° SE daylight
24 Nov - 14:01:43 10° WSW 14:04:29 16° SSW 14:07:16 10° SSE daylight
25 Nov - 10:56:36 10° SSW 10:59:38 18° SSE 11:02:40 10° ESE daylight
25 Nov - 12:36:55 10° SW 12:40:10 20° S 12:43:26 10° SE daylight
25 Nov - 14:18:39 10° SW 14:20:35 13° SSW 14:22:31 10° S daylight
26 Nov - 09:33:25 10° S 09:35:23 13° SSE 09:37:22 10° SE daylight
26 Nov - 11:12:33 10° SW 11:15:48 20° S 11:19:04 10° SE daylight
26 Nov - 12:53:20 10° WSW 12:56:20 18° SSW 12:59:22 10° SSE daylight
